星链-34758 (STARLINK-34758)

导读

STARLINK-34758是美国(US)于2025年7月26日发射的星链系列卫星,隶属于SpaceX公司的星链星座项目。该项目旨在搭建全球卫星互联网星座,为全球范围提供高速低延迟的互联网接入服务,这颗卫星的发射进一步扩充了星链星座的在轨规模,推进了全球覆盖网络的建设进程。

Basic Information
目录编号:
64945
目录名称:
STARLINK-34758
国际标识:
2025-158P
轨道中心:
EARTH
卫星名称:
星链-34758
卫星全名:
星链-34758 (STARLINK-34758)
卫星状态:
在轨 (已飞行322 天)
发射日期:
2025-07-26 UTC
国别 :
美国 (US)
星等 :
--
Orbit Information
数据来源 国际轨道数据 AOE轨道数据
星历时间 2026-06-13T12:07:13+0800
15小时前
查看轨道信息
2026-06-11T00:00:00+0800
3天前
查看轨道信息
半长轴 6927.631km 6927.586km
偏心率 0.0002663 0.0001812
轨道倾角 97.369° 97.381°
近地点辐角 69.710° 102.602°
升交点赤经 27.345° 24.946°
平近点角 290.441° 7.976°
近地点 547.649km 548.193km
远地点 551.339km 550.705km
周期 95.639分钟 95.638分钟
每日圈数 15.056557 15.056703
Detailed Information
固有亮度:
5
最大亮度:
2.5
卫星平台:
Starlink V1.0
覆盖范围:
全球
运营商:
太空探索技术公司
运营商所在国:
美国
制造商(研发单位):
太空探索技术公司
制造商所在国:
美国
使用方式:
暂无
Satellite Introduction
Starlink 计划是 SpaceX 推出的全球卫星互联网项目,通过发射低轨道卫星,为全球尤其是偏远地区提供高速、低延迟的互联网服务。自 2019 年起,Starlink 已部署数千颗卫星,旨在缩小全球数字鸿沟,推动互联网普及。该项目还为军事、航空等行业提供通信支持,带来广泛经济效益。
2D Orbit Map
3D Orbit Map
Orbit Altitude Analysis Chart
Orbit Inclination Analysis Chart
Orbit Comprehensive Analysis Chart
View Comprehensive Chart